Weather History for Prescott, AZ

Change the Weather History Date:

Tuesday, December 9, 2014

  Actual Average Record
Temperature  
Mean Temperature 47 °F 39 °F  
Max Temperature 60 °F 52 °F 72 °F (1950)
Min Temperature 34 °F 26 °F 2 °F (1978)
Degree Days  
Heating Degree Days 18    
Month to date heating degree days 163  
Since 1 July heating degree days 820  
Cooling Degree Days 0    
Month to date cooling degree days 0  
Year to date cooling degree days 1039  
Moisture  
Dew Point 34 °F    
Average Humidity 69    
Maximum Humidity 89    
Minimum Humidity 39    
Precipitation  
Precipitation 0.00 in 0.03 in 1.62 in (1965)
Month to date precipitation 1.57 0.27  
Year to date precipitation 11.79 13.28  
Sea Level Pressure  
Sea Level Pressure 30.11 in    
Wind  
Wind Speed 4 mph (SW)    
Max Wind Speed 10 mph    
Max Gust Speed 11 mph    
Visibility 10 miles    
Events      
T = Trace of Precipitation, MM = Missing Value Source: NWS Daily Summary

Daily Weather History Graph

Daily Weather History Graph

Search for Another Location

Airport:

Trip Planner

Search our weather history database for the weather conditions in past years. The results will help you decide how hot, cold, wet, or windy it might be!

Date:

Astronomy

Dec. 09, 2014 Rise Set
Actual Time 7:25 AM MST 5:19 PM MST
Civil Twilight 6:57 AM MST 5:46 PM MST
Nautical Twilight 6:25 AM MST 6:18 PM MST
Astronomical Twilight 5:55 AM MST 6:48 PM MST
Moon 8:36 PM MST (12/9) 9:45 AM MST (12/9)
Length of Visible Light 10h 49m
Length of Day
9h 53m
Waning Gibbous, 89% of the Moon is Illuminated
Dec 9
Waning Gibbous
Dec 14
Last Quarter
Dec 21
New
Dec 28
First Quarter
Jan 4
Full

Hourly Weather History & Observations

Time (MST) Temp. Windchill Dew Point Humidity Pressure Visibility Wind Dir Wind Speed Gust Speed Precip Events Conditions
12:53 AM 37.9 °F 35.5 °F 33.1 °F 83% 30.13 in 10.0 mi SSW 3.5 mph - N/A   Clear
1:53 AM 37.9 °F 35.5 °F 33.1 °F 83% 30.12 in 10.0 mi SSW 3.5 mph - N/A   Clear
2:53 AM 37.0 °F 34.5 °F 32.0 °F 82% 30.12 in 10.0 mi SW 3.5 mph - N/A   Clear
3:53 AM 36.0 °F 33.3 °F 32.0 °F 86% 30.12 in 10.0 mi SSW 3.5 mph - N/A   Clear
4:53 AM 35.1 °F - 30.9 °F 85% 30.12 in 10.0 mi Calm Calm - N/A   Clear
5:53 AM 35.1 °F 30.1 °F 30.9 °F 85% 30.14 in 10.0 mi SSW 5.8 mph - N/A   Clear
6:53 AM 35.1 °F 31.0 °F 30.9 °F 85% 30.16 in 10.0 mi SSW 4.6 mph - N/A   Clear
7:53 AM 35.1 °F 32.2 °F 30.9 °F 85% 30.17 in 10.0 mi South 3.5 mph - N/A   Clear
8:53 AM 44.1 °F 41.5 °F 36.0 °F 73% 30.16 in 10.0 mi North 4.6 mph - N/A   Clear
9:53 AM 48.0 °F - 36.0 °F 63% 30.16 in 10.0 mi North 3.5 mph - N/A   Clear
10:53 AM 48.0 °F - 34.0 °F 58% 30.17 in 10.0 mi NNW 8.1 mph - N/A   Clear
11:53 AM 50.0 °F - 34.0 °F 54% 30.14 in 10.0 mi NW 5.8 mph - N/A   Clear
12:53 PM 55.0 °F - 36.0 °F 49% 30.09 in 10.0 mi Calm Calm - N/A   Clear
1:53 PM 57.0 °F - 35.1 °F 44% 30.06 in 10.0 mi North 4.6 mph - N/A   Partly Cloudy
2:53 PM 57.9 °F - 35.1 °F 42% 30.05 in 10.0 mi North 4.6 mph - N/A   Partly Cloudy
3:53 PM 60.1 °F - 35.1 °F 39% 30.04 in 10.0 mi Variable 4.6 mph - N/A   Partly Cloudy
4:53 PM 57.9 °F - 36.0 °F 44% 30.04 in 10.0 mi North 3.5 mph - N/A   Partly Cloudy
5:53 PM 50.0 °F - 36.0 °F 59% 30.05 in 10.0 mi Calm Calm - N/A   Clear
6:53 PM 45.0 °F 42.6 °F 35.1 °F 68% 30.07 in 10.0 mi SSW 4.6 mph - N/A   Clear
7:53 PM 43.0 °F 39.5 °F 35.1 °F 74% 30.10 in 10.0 mi SSW 5.8 mph - N/A   Clear
8:53 PM 39.9 °F 35.1 °F 34.0 °F 79% 30.09 in 10.0 mi SSW 6.9 mph - N/A   Clear
9:53 PM 39.9 °F 35.8 °F 33.1 °F 77% 30.09 in 10.0 mi WSW 5.8 mph - N/A   Clear
10:53 PM 39.0 °F 36.8 °F 33.1 °F 79% 30.09 in 10.0 mi South 3.5 mph - N/A   Clear
11:53 PM 37.9 °F 34.4 °F 33.1 °F 83% 30.10 in 10.0 mi SSW 4.6 mph - N/A   Clear